Location: Wallasey
(53.4265°N, 3.0662°W)
Time: 13:59:39
(UTC+01:00)

NOAA 15 - Visible Passes

Search period start: 23 September 2019 00:00
Search period end: 03 October 2019 00:00
Orbit: 798 x 812 km, 98.7° (Epoch: 22 September)

Date Brightness Start Highest point End Pass type
(mag) Time Alt. Az. Time Alt. Az. Time Alt. Az.
23 Sep 6.9 20:39:24 10° SSW 20:43:44 25° W 20:48:06 10° NW visible
24 Sep 6.2 20:13:31 10° SSW 20:18:25 38° W 20:23:22 10° NNW visible
25 Sep 5.3 19:48:00 10° S 19:53:12 59° WSW 19:58:28 10° NNW visible
25 Sep 7.8 21:33:08 10° W 21:34:08 10° W 21:35:09 10° WNW visible
26 Sep 7.4 21:05:16 10° SW 21:08:38 17° W 21:12:01 10° NW visible
27 Sep 6.9 20:38:52 10° SSW 20:43:13 26° W 20:47:37 10° NW visible
28 Sep 6.1 20:12:59 10° SSW 20:17:55 39° W 20:22:53 10° NNW visible
29 Sep 5.3 19:47:29 10° S 19:52:42 60° WSW 19:57:58 10° NNW visible
29 Sep 7.8 21:32:27 10° W 21:33:38 11° W 21:34:49 10° WNW visible
30 Sep 4.7 19:22:17 10° SSE 19:27:35 89° WSW 19:32:56 10° NNW visible
30 Sep 7.4 21:04:43 10° SW 21:08:08 17° W 21:11:33 10° NW visible
01 Oct 6.8 20:38:21 10° SSW 20:42:43 26° W 20:47:09 10° NW visible
02 Oct 6.1 20:12:28 10° SSW 20:17:24 39° W 20:22:24 10° NNW visible
